Flag for U.S.A. Weather past 2 weeks in Rochester, New York, U.S.A.

Now
31 °F

Clear.


Feels Like: 23 °F
Forecast: 30 / 37 °F
Wind: 9 mph from West

Location: Greater Rochester International Airport

Current Time: Mar 31, 2015 at 2:50:58 AM

Latest Report: Mar 31, 2015 at 1:54 AM


Visibility: 10 mi

Pressure: 29.91 "Hg

Humidity: 73%

Dew point: 23 °F

Location of RochesterLocation

Historic Weather in Rochester — Graph

°F

Rochester temperature yesterday

Maximum temperature yesterday: 44 °F (at 2:54 PM)
Minimum temperature yesterday: 33 °F (at 11:54 PM)
Average temperature yesterday: 39 °F

Past Weeks' High & Low Weather Summary

 TemperatureHumidityPressure
High52 °F (Mar 16, 3:54 PM)97% (Mar 17, 2:54 AM)30.43 "Hg (Mar 17, 2:54 AM)
Low14 °F (Mar 24, 6:54 AM)27% (Mar 29, 5:54 PM)29.63 "Hg (Mar 17, 3:54 AM)
Average31 °F64%30.08 "Hg
* Reported Mar 16 1:54 AM — Mar 31 1:54 AM, Rochester, Weather by CustomWeather, © 2015

Note: Actual official high and low records may vary slightly from our data, if they occured in-between our weather recording intervals... More about our weather records

Advertising

Rochester weather history for previous 24 hours

 ConditionsComfort  
Time TempWeatherWind HumidityBarometerVisibility
1:54 AM
Tue, Mar 31
31 °FClear.9 mph73%29.91 "Hg10 mi
12:54 AM32 °FPassing clouds.10 mph73%29.91 "Hg10 mi
11:54 PM
Mon, Mar 30
33 °FPassing clouds.8 mph70%29.90 "Hg10 mi
10:54 PM34 °FPartly cloudy.8 mph70%29.90 "Hg10 mi
9:54 PM36 °FPassing clouds.9 mph64%29.88 "Hg10 mi
8:54 PM37 °FPassing clouds.12 mph65%29.86 "Hg10 mi
7:54 PM38 °FPartly sunny.13 mph83%29.84 "Hg10 mi
6:54 PM39 °FMostly cloudy.13 mph79%29.83 "Hg10 mi
5:54 PM38 °FPartly sunny.14 mph86%29.81 "Hg10 mi
4:54 PM37 °FLight rain. Fog.14 mph89%29.81 "Hg10 mi
3:54 PM38 °FLight rain. Mostly cloudy.16 mph86%29.81 "Hg10 mi
2:54 PM44 °FMostly cloudy.21 mph58%29.77 "Hg10 mi
1:54 PM43 °FLight rain. Mostly cloudy.23 mph58%29.77 "Hg10 mi
12:54 PM42 °FPartly sunny.16 mph60%29.76 "Hg10 mi
11:54 AM42 °FMostly cloudy.21 mph55%29.75 "Hg10 mi
10:54 AM41 °FMostly cloudy.16 mph62%29.74 "Hg10 mi
9:54 AM40 °FOvercast.17 mph65%29.72 "Hg10 mi
8:54 AM39 °FOvercast.21 mph70%29.70 "Hg10 mi
7:54 AM40 °FOvercast.23 mph70%29.68 "Hg10 mi
6:54 AM40 °FOvercast.23 mph83%29.65 "Hg10 mi
5:54 AM38 °FLight rain. Fog.16 mph86%29.64 "Hg6 mi
4:54 AM40 °FLight rain. Mostly cloudy.15 mph65%29.65 "Hg10 mi
3:54 AM40 °FOvercast.16 mph55%29.68 "Hg10 mi
2:54 AM39 °FOvercast.16 mph60%29.72 "Hg10 mi
Weather by CustomWeather, © 2015

See weather overviewHow to use our weather pages